,,Stat1,,Stat2,,Stat3,,Stat4,,Wind1,,Wind1,
time,status,PR1M_SUM,status,RH1M_AVG,status,SR1M_AVG,status,TA1M_AVG,status,W1dAve1m,status,W1sAve1m,
1999-10-23, 00:01:00,VALID,0,VALID,99.5921,VALID,0.0169808,VALID,19.0375,VALID,144,VALID,0,
1999-10-23, 00:02:00,VALID,0,VALID,99.5539,VALID,-0.0169808,VALID,19.0188,VALID,139,VALID,0,
1999-10-23, 00:03:00,VALID,0,VALID,99.5654,VALID,0,VALID,19.035,VALID,130,VALID,0,
1999-10-23, 00:04:00,VALID,0,VALID,99.5717,VALID,0,VALID,19.041,VALID,124,VALID,0,
1999-10-23, 00:05:00,VALID,0,VALID,99.5437,VALID,0,VALID,19.0278,VALID,126,VALID,0,
1999-10-23, 00:06:00,VALID,0,VALID,99.5272,VALID,0,VALID,19.0412,VALID,126,VALID,0,
1999-10-23, 00:07:00,VALID,0,VALID,99.4217,VALID,0.0169808,VALID,19.0213,VALID,158,VALID,0,
1999-10-23, 00:08:00,VALID,0,VALID,99.3581,VALID,0,VALID,19.0086,VALID,193,VALID,0,
1999-10-23, 00:09:00,VALID,0,VALID,99.4166,VALID,0,VALID,19.0285,VALID,209,VALID,0,
1999-10-23, 00:10:00,VALID,0,VALID,99.3416,VALID,0,VALID,19.0054,VALID,230,VALID,0,
1999-10-23, 00:11:00,VALID,0,VALID,99.3047,VALID,0,VALID,18.9885,VALID,237,VALID,0.264482,
1999-10-23, 00:12:00,VALID,0,VALID,99.3212,VALID,0,VALID,18.9927,VALID,235,VALID,0.465666,
1999-10-23, 00:13:00,VALID,0,VALID,99.3734,VALID,0,VALID,18.9955,VALID,232,VALID,0.173047,
1999-10-23, 00:14:00,VALID,0,VALID,99.3314,VALID,0.0169808,VALID,18.9888,VALID,232,VALID,0.0855263,
1999-10-23, 00:15:00,VALID,0,VALID,99.306,VALID,0.0169808,VALID,18.9828,VALID,232,VALID,0,
1999-10-23, 00:16:00,VALID,0,VALID,99.3632,VALID,-0.0169808,VALID,18.989,VALID,232,VALID,0,
1999-10-23, 00:17:00,VALID,0,VALID,99.4331,VALID,-0.0169808,VALID,19.041,VALID,219,VALID,0,
1999-10-23, 00:18:00,VALID,0,VALID,99.4204,VALID,-0.0169808,VALID,19.0738,VALID,213,VALID,0,
1999-10-23, 00:19:01,VALID,0,VALID,99.3708,VALID,0,VALID,19.0604,VALID,203,VALID,0,
1999-10-23, 00:20:00,VALID,0,VALID,99.4013,VALID,0,VALID,19.0934,VALID,180,VALID,0,
1999-10-23, 00:21:00,VALID,0,VALID,99.3912,VALID,-0.0169808,VALID,19.0997,VALID,180,VALID,0,
1999-10-23, 00:22:00,VALID,0,VALID,99.3772,VALID,0,VALID,19.1091,VALID,180,VALID,0,
1999-10-23, 00:23:00,VALID,0,VALID,99.3937,VALID,0,VALID,19.125,VALID,180,VALID,0,
1999-10-23, 00:24:00,VALID,0,VALID,99.4408,VALID,0,VALID,19.1541,VALID,180,VALID,0,
1999-10-23, 00:25:00,VALID,0,VALID,99.4306,VALID,-0.0169808,VALID,19.1641,VALID,180,VALID,0,
1999-10-23, 00:26:00,VALID,0,VALID,99.3619,VALID,-0.0169808,VALID,19.1511,VALID,180,VALID,0,
1999-10-23, 00:27:00,VALID,0,VALID,99.3161,VALID,0,VALID,19.1414,VALID,180,VALID,0,
1999-10-23, 00:28:00,VALID,0,VALID,99.3085,VALID,0,VALID,19.1609,VALID,175,VALID,0,
1999-10-23, 00:29:01,VALID,0,VALID,99.3212,VALID,-0.0169808,VALID,19.1773,VALID,125,VALID,0,
1999-10-23, 00:30:00,VALID,0,VALID,99.3377,VALID,0,VALID,19.1964,VALID,118,VALID,0,
1999-10-23, 00:31:00,VALID,0,VALID,99.3479,VALID,0,VALID,19.2096,VALID,120,VALID,0,
1999-10-23, 00:32:00,VALID,0,VALID,99.3797,VALID,-0.0169808,VALID,19.2385,VALID,119,VALID,0,
1999-10-23, 00:33:00,VALID,0,VALID,99.4102,VALID,0,VALID,19.2609,VALID,119,VALID,0,
1999-10-23, 00:34:00,VALID,0,VALID,99.4242,VALID,0,VALID,19.2671,VALID,118,VALID,0,
1999-10-23, 00:35:00,VALID,0,VALID,99.3416,VALID,-0.0169808,VALID,19.232,VALID,118,VALID,0,
1999-10-23, 00:36:00,VALID,0,VALID,99.3098,VALID,0,VALID,19.232,VALID,118,VALID,0,
1999-10-23, 00:37:00,VALID,0,VALID,99.2589,VALID,-0.0169808,VALID,19.1989,VALID,118,VALID,0,
1999-10-23, 00:38:00,VALID,0,VALID,99.2653,VALID,0,VALID,19.1989,VALID,117,VALID,0,
1999-10-23, 00:39:00,VALID,0,VALID,99.2513,VALID,-0.0169808,VALID,19.1828,VALID,126,VALID,0.468164,
1999-10-23, 00:40:01,VALID,0,VALID,99.1915,VALID,0,VALID,19.1668,VALID,125,VALID,0.909128,
1999-10-23, 00:41:01,VALID,0,VALID,99.1406,VALID,0,VALID,19.1546,VALID,135,VALID,0.950977,
1999-10-23, 00:42:00,VALID,0,VALID,99.0707,VALID,-0.0169808,VALID,19.1382,VALID,140,VALID,0.800987,
1999-10-23, 00:43:00,VALID,0,VALID,99.0567,VALID,0,VALID,19.1156,VALID,161,VALID,0.529492,
1999-10-23, 00:44:00,VALID,0,VALID,99.0287,VALID,0,VALID,19.089,VALID,189,VALID,0.078125,
1999-10-23, 00:45:00,VALID,0,VALID,99.0491,VALID,0,VALID,19.0955,VALID,120,VALID,0,
1999-10-23, 00:46:00,VALID,0,VALID,99.119,VALID,0,VALID,19.1218,VALID,115,VALID,0,
1999-10-23, 00:47:00,VALID,0,VALID,99.1038,VALID,0,VALID,19.1052,VALID,125,VALID,0,
1999-10-23, 00:48:00,VALID,0,VALID,99.0682,VALID,0,VALID,19.1024,VALID,119,VALID,0,
1999-10-23, 00:49:00,VALID,0,VALID,99.0491,VALID,0,VALID,19.0795,VALID,113,VALID,0,
1999-10-23, 00:50:00,VALID,0,VALID,99.0974,VALID,0,VALID,19.08,VALID,101,VALID,0,
1999-10-23, 00:51:01,VALID,0,VALID,99.1801,VALID,-0.0169808,VALID,19.1089,VALID,102,VALID,0,
1999-10-23, 00:52:01,VALID,0,VALID,99.1674,VALID,0,VALID,19.1029,VALID,104,VALID,0,
1999-10-23, 00:53:00,VALID,0,VALID,99.189,VALID,-0.0169808,VALID,19.0997,VALID,101,VALID,0,
1999-10-23, 00:54:00,VALID,0,VALID,99.1394,VALID,-0.0169808,VALID,19.0634,VALID,110,VALID,0,
1999-10-23, 00:55:00,VALID,0,VALID,99.1368,VALID,0,VALID,19.0343,VALID,115,VALID,0.362695,
1999-10-23, 00:56:00,VALID,0,VALID,99.2233,VALID,0,VALID,19.0541,VALID,110,VALID,0.460938,
1999-10-23, 00:57:00,VALID,0,VALID,99.2208,VALID,0,VALID,19.0442,VALID,101,VALID,0.44707,
1999-10-23, 00:58:00,VALID,0,VALID,99.1953,VALID,-0.0339617,VALID,19.0121,VALID,108,VALID,0.312706,
1999-10-23, 00:59:00,VALID,0,VALID,99.3098,VALID,0,VALID,19.0509,VALID,114,VALID,0.312695,
1999-10-23, 01:00:00,VALID,0,VALID,99.3619,VALID,-0.0339617,VALID,19.0703,VALID,111,VALID,0.450041,
1999-10-23, 01:01:00,VALID,0,VALID,99.3606,VALID,-0.0339617,VALID,19.0743,VALID,99,VALID,0.400195,
1999-10-23, 01:02:00,VALID,0,VALID,99.3479,VALID,0,VALID,19.0509,VALID,97,VALID,0.635485,
1999-10-23, 01:03:01,VALID,0,VALID,99.3606,VALID,-0.0339617,VALID,19.0643,VALID,96,VALID,0.38457,
1999-10-23, 01:04:00,VALID,0,VALID,99.3988,VALID,-0.0339617,VALID,19.0673,VALID,94,VALID,0.0497533,
1999-10-23, 01:05:00,VALID,0,VALID,99.325,VALID,-0.0509425,VALID,19.028,VALID,81,VALID,0.0296875,
1999-10-23, 01:06:00,VALID,0,VALID,99.3034,VALID,-0.0339617,VALID,19.0089,VALID,69,VALID,0,
1999-10-23, 01:07:00,VALID,0,VALID,99.3352,VALID,0,VALID,19.0056,VALID,97,VALID,0,
1999-10-23, 01:08:00,VALID,0,VALID,99.3619,VALID,-0.0169808,VALID,19.0086,VALID,93,VALID,0.126439,
1999-10-23, 01:09:00,VALID,0,VALID,99.4051,VALID,0,VALID,19.0315,VALID,96,VALID,0.720553,
1999-10-23, 01:10:00,VALID,0,VALID,99.4458,VALID,-0.0339617,VALID,19.0377,VALID,85,VALID,0.698808,
1999-10-23, 01:11:00,VALID,0,VALID,99.414,VALID,-0.0169808,VALID,19.0123,VALID,60,VALID,0.668555,
1999-10-23, 01:12:00,VALID,0,VALID,99.4026,VALID,-0.0509425,VALID,18.989,VALID,87,VALID,0.631168,
1999-10-23, 01:13:01,VALID,0,VALID,99.4369,VALID,0,VALID,19.0017,VALID,88,VALID,1.0709,
1999-10-23, 01:14:01,VALID,0,VALID,99.4611,VALID,-0.0169808,VALID,19.0019,VALID,61,VALID,0.676192,
1999-10-23, 01:15:00,VALID,0,VALID,99.4535,VALID,-0.0169808,VALID,18.9828,VALID,54,VALID,0.483398,
1999-10-23, 01:16:00,VALID,0,VALID,99.456,VALID,0,VALID,18.9763,VALID,60,VALID,0.0949836,
1999-10-23, 01:17:00,VALID,0,VALID,99.4687,VALID,-0.0339617,VALID,18.9798,VALID,46,VALID,0.186328,
1999-10-23, 01:18:00,VALID,0,VALID,99.4509,VALID,-0.0169808,VALID,18.9636,VALID,67,VALID,0.635074,
1999-10-23, 01:19:00,VALID,0,VALID,99.5298,VALID,-0.0339617,VALID,19.0091,VALID,103,VALID,0.700781,
1999-10-23, 01:20:00,VALID,0,VALID,99.5717,VALID,0,VALID,19.0248,VALID,98,VALID,0.354852,
1999-10-23, 01:21:00,VALID,0,VALID,99.5641,VALID,0,VALID,19.0151,VALID,81,VALID,0.44707,
1999-10-23, 01:22:00,VALID,0,VALID,99.545,VALID,-0.0169808,VALID,19.0086,VALID,61,VALID,0.66509,
1999-10-23, 01:23:00,VALID,0,VALID,99.5145,VALID,-0.0169808,VALID,18.9726,VALID,43,VALID,0.132422,
1999-10-23, 01:24:01,VALID,0,VALID,99.5336,VALID,0,VALID,18.9798,VALID,56,VALID,0,
1999-10-23, 01:25:01,VALID,0,VALID,99.5806,VALID,0,VALID,18.9927,VALID,96,VALID,0,
1999-10-23, 01:26:00,VALID,0,VALID,99.6226,VALID,0,VALID,19.025,VALID,96,VALID,0,
1999-10-23, 01:27:00,VALID,0,VALID,99.5984,VALID,-0.0169808,VALID,19.032,VALID,88,VALID,0,
1999-10-23, 01:28:00,VALID,0,VALID,99.6022,VALID,0,VALID,19.0253,VALID,69,VALID,0.0454359,
1999-10-23, 01:29:00,VALID,0,VALID,99.6137,VALID,0,VALID,19.0223,VALID,87,VALID,0.623828,
1999-10-23, 01:30:00,VALID,0,VALID,99.6429,VALID,0,VALID,19.0315,VALID,79,VALID,0.592105,
1999-10-23, 01:31:00,VALID,0,VALID,99.6747,VALID,0,VALID,19.0768,VALID,82,VALID,0.586914,
1999-10-23, 01:32:00,VALID,0,VALID,99.737,VALID,-0.0169808,VALID,19.0802,VALID,92,VALID,0.320518,
1999-10-23, 01:33:00,VALID,0,VALID,99.7103,VALID,-0.0169808,VALID,19.087,VALID,77,VALID,0,
1999-10-23, 01:34:00,VALID,0,VALID,99.676,VALID,0,VALID,19.0703,VALID,76,VALID,0,
1999-10-23, 01:35:01,VALID,0,VALID,99.6874,VALID,0,VALID,19.0636,VALID,76,VALID,0,
1999-10-23, 01:36:01,VALID,0,VALID,99.7014,VALID,0,VALID,19.0765,VALID,76,VALID,0,
1999-10-23, 01:37:00,VALID,0,VALID,99.7281,VALID,0,VALID,19.0929,VALID,99,VALID,0,
1999-10-23, 01:38:00,VALID,0,VALID,99.7675,VALID,-0.0169808,VALID,19.1255,VALID,109,VALID,0,
1999-10-23, 01:39:00,VALID,0,VALID,99.7497,VALID,-0.0169808,VALID,19.1153,VALID,108,VALID,0,
1999-10-23, 01:40:00,VALID,0,VALID,99.7536,VALID,-0.0169808,VALID,19.1315,VALID,108,VALID,0,
1999-10-23, 01:41:00,VALID,0,VALID,99.7599,VALID,-0.0339617,VALID,19.1447,VALID,94,VALID,0,
1999-10-23, 01:42:00,VALID,0,VALID,99.779,VALID,-0.0339617,VALID,19.1643,VALID,93,VALID,0,
1999-10-23, 01:43:00,VALID,0,VALID,99.7218,VALID,-0.0509425,VALID,19.1417,VALID,93,VALID,0,
1999-10-23, 01:44:00,VALID,0,VALID,99.7167,VALID,-0.0169808,VALID,19.1255,VALID,93,VALID,0,
1999-10-23, 01:45:00,VALID,0,VALID,99.7294,VALID,0,VALID,19.1285,VALID,183,VALID,0,
1999-10-23, 01:46:00,VALID,0,VALID,99.7587,VALID,0,VALID,19.1507,VALID,236,VALID,0,
1999-10-23, 01:47:01,VALID,0,VALID,99.7561,VALID,0,VALID,19.1514,VALID,236,VALID,0,
1999-10-23, 01:48:00,VALID,0,VALID,99.7701,VALID,-0.0509425,VALID,19.1514,VALID,229,VALID,0,
1999-10-23, 01:49:00,VALID,0,VALID,99.793,VALID,-0.0169808,VALID,19.1636,VALID,223,VALID,0,
1999-10-23, 01:50:00,VALID,0,VALID,99.793,VALID,0,VALID,19.1904,VALID,153,VALID,0,
1999-10-23, 01:51:00,VALID,0,VALID,99.7917,VALID,-0.0339617,VALID,19.2029,VALID,144,VALID,0,
1999-10-23, 01:52:00,VALID,0,VALID,99.7943,VALID,-0.0679233,VALID,19.1997,VALID,144,VALID,0,
1999-10-23, 01:53:00,VALID,0,VALID,99.7968,VALID,-0.0169808,VALID,19.2096,VALID,130,VALID,0,
1999-10-23, 01:54:00,VALID,0,VALID,99.7981,VALID,-0.0509425,VALID,19.2059,VALID,101,VALID,0,
1999-10-23, 01:55:00,VALID,0,VALID,99.7981,VALID,-0.0509425,VALID,19.229,VALID,89,VALID,0.0582031,
1999-10-23, 01:56:00,VALID,0,VALID,99.7408,VALID,-0.0169808,VALID,19.1897,VALID,88,VALID,0.375411,
1999-10-23, 01:57:01,VALID,0,VALID,99.7408,VALID,0,VALID,19.2001,VALID,92,VALID,0.388086,
1999-10-23, 01:58:01,VALID,0,VALID,99.7574,VALID,-0.0339617,VALID,19.1999,VALID,106,VALID,0.123355,
1999-10-23, 01:59:00,VALID,0,VALID,99.7637,VALID,-0.0169808,VALID,19.2123,VALID,106,VALID,0,
1999-10-23, 02:00:00,VALID,0,VALID,99.7281,VALID,-0.0339617,VALID,19.2161,VALID,105,VALID,0.0152138,
1999-10-23, 02:01:00,VALID,0,VALID,99.6582,VALID,-0.0679233,VALID,19.1611,VALID,94,VALID,0.337305,
1999-10-23, 02:02:00,VALID,0,VALID,99.6391,VALID,-0.0169808,VALID,19.135,VALID,93,VALID,0.187911,
1999-10-23, 02:03:00,VALID,0,VALID,99.6595,VALID,-0.0339617,VALID,19.1482,VALID,103,VALID,0.500195,
1999-10-23, 02:04:00,VALID,0,VALID,99.676,VALID,-0.0509425,VALID,19.1544,VALID,104,VALID,0.335321,
1999-10-23, 02:05:00,VALID,0,VALID,99.6671,VALID,-0.0169808,VALID,19.1606,VALID,101,VALID,0.0195313,
1999-10-23, 02:06:00,VALID,0,VALID,99.6417,VALID,-0.0339617,VALID,19.1514,VALID,96,VALID,0.0664063,
1999-10-23, 02:07:00,VALID,0,VALID,99.6239,VALID,-0.0679233,VALID,19.1352,VALID,94,VALID,0,
1999-10-23, 02:08:01,VALID,0,VALID,99.6366,VALID,-0.0509425,VALID,19.1479,VALID,93,VALID,0.00719572,
1999-10-23, 02:09:01,VALID,0,VALID,99.615,VALID,-0.0679233,VALID,19.1414,VALID,90,VALID,0.00273437,
1999-10-23, 02:10:00,VALID,0,VALID,99.6137,VALID,-0.0849042,VALID,19.1516,VALID,90,VALID,0,
1999-10-23, 02:11:00,VALID,0,VALID,99.6378,VALID,-0.0679233,VALID,19.1648,VALID,90,VALID,0,
1999-10-23, 02:12:00,VALID,0,VALID,99.6989,VALID,-0.0849042,VALID,19.1867,VALID,90,VALID,0,
1999-10-23, 02:13:00,VALID,0,VALID,99.69,VALID,-0.0849042,VALID,19.22,VALID,90,VALID,0,
1999-10-23, 02:14:00,VALID,0,VALID,99.6684,VALID,-0.0509425,VALID,19.2228,VALID,90,VALID,0,
1999-10-23, 02:15:00,VALID,0,VALID,99.6658,VALID,-0.0339617,VALID,19.2327,VALID,90,VALID,0,
1999-10-23, 02:16:00,VALID,0,VALID,99.6391,VALID,-0.0509425,VALID,19.2163,VALID,89,VALID,0,
1999-10-23, 02:17:00,VALID,0,VALID,99.6022,VALID,-0.0849042,VALID,19.1999,VALID,347,VALID,0.147461,
1999-10-23, 02:18:00,VALID,0,VALID,99.5883,VALID,-0.0339617,VALID,19.1997,VALID,313,VALID,0.143709,
1999-10-23, 02:19:01,VALID,0,VALID,99.5997,VALID,-0.0509425,VALID,19.1858,VALID,314,VALID,0,
1999-10-23, 02:20:00,VALID,0,VALID,99.6022,VALID,-0.0509425,VALID,19.2029,VALID,314,VALID,0,
1999-10-23, 02:21:00,VALID,0,VALID,99.6353,VALID,-0.0849042,VALID,19.226,VALID,288,VALID,0,
1999-10-23, 02:22:00,VALID,0,VALID,99.648,VALID,-0.0509425,VALID,19.2419,VALID,334,VALID,0,
1999-10-23, 02:23:00,VALID,0,VALID,99.6391,VALID,-0.0679233,VALID,19.2549,VALID,359,VALID,0,
1999-10-23, 02:24:00,VALID,0,VALID,99.6633,VALID,0,VALID,19.2703,VALID,330,VALID,0,
1999-10-23, 02:25:00,VALID,0,VALID,99.6531,VALID,0.0339617,VALID,19.2626,VALID,319,VALID,0,
1999-10-23, 02:26:00,VALID,0,VALID,99.6544,VALID,0.0339617,VALID,19.2689,VALID,322,VALID,0,
1999-10-23, 02:27:00,VALID,0,VALID,99.6366,VALID,0.0509425,VALID,19.2788,VALID,31,VALID,0,
1999-10-23, 02:28:00,VALID,0,VALID,99.6213,VALID,0.0849042,VALID,19.2689,VALID,124,VALID,0,
1999-10-23, 02:29:01,VALID,0,VALID,99.6366,VALID,0.101885,VALID,19.2756,VALID,122,VALID,0,
1999-10-23, 02:30:00,VALID,0,VALID,99.6556,VALID,0.0509425,VALID,19.3009,VALID,92,VALID,0,
1999-10-23, 02:31:00,VALID,0,VALID,99.648,VALID,0.0849042,VALID,19.2977,VALID,88,VALID,0,
1999-10-23, 02:32:00,VALID,0,VALID,99.6226,VALID,0.0339617,VALID,19.3044,VALID,101,VALID,0,
1999-10-23, 02:33:00,VALID,0,VALID,99.6137,VALID,0.101885,VALID,19.2887,VALID,91,VALID,0.716211,
1999-10-23, 02:34:00,VALID,0,VALID,99.5997,VALID,0.101885,VALID,19.2855,VALID,83,VALID,0.579153,
1999-10-23, 02:35:00,VALID,0,VALID,99.5768,VALID,0.101885,VALID,19.2693,VALID,94,VALID,0.866211,
1999-10-23, 02:36:00,VALID,0,VALID,99.5539,VALID,0.0679233,VALID,19.2462,VALID,83,VALID,0.601357,
1999-10-23, 02:37:00,VALID,0,VALID,99.47,VALID,0.101885,VALID,19.2241,VALID,90,VALID,0.428516,
1999-10-23, 02:38:00,VALID,0,VALID,99.4636,VALID,0.0849042,VALID,19.2039,VALID,106,VALID,0,
1999-10-23, 02:39:00,VALID,0,VALID,99.5387,VALID,0.0339617,VALID,19.2338,VALID,101,VALID,0,
1999-10-23, 02:40:01,VALID,0,VALID,99.5819,VALID,-0.0339617,VALID,19.2703,VALID,93,VALID,0,
1999-10-23, 02:41:01,VALID,0,VALID,99.5946,VALID,-0.0509425,VALID,19.2534,VALID,89,VALID,0,
1999-10-23, 02:42:00,VALID,0,VALID,99.4903,VALID,-0.0509425,VALID,19.2188,VALID,73,VALID,0,
1999-10-23, 02:43:00,VALID,0,VALID,99.4865,VALID,-0.0339617,VALID,19.1761,VALID,84,VALID,0,
1999-10-23, 02:44:00,VALID,0,VALID,99.5272,VALID,-0.0339617,VALID,19.1959,VALID,95,VALID,0,
1999-10-23, 02:45:00,VALID,0,VALID,99.559,VALID,-0.0509425,VALID,19.2091,VALID,95,VALID,0,
1999-10-23, 02:46:00,VALID,0,VALID,99.6048,VALID,-0.0339617,VALID,19.2285,VALID,95,VALID,0,
1999-10-23, 02:47:00,VALID,0,VALID,99.615,VALID,-0.0169808,VALID,19.2479,VALID,100,VALID,0,
1999-10-23, 02:48:00,VALID,0,VALID,99.6124,VALID,-0.0339617,VALID,19.2347,VALID,87,VALID,0,
1999-10-23, 02:49:00,VALID,0,VALID,99.5717,VALID,-0.0679233,VALID,19.2123,VALID,78,VALID,0,
1999-10-23, 02:50:00,VALID,0,VALID,99.4967,VALID,-0.0339617,VALID,19.174,VALID,54,VALID,0,
1999-10-23, 02:51:01,VALID,0,VALID,99.5247,VALID,0,VALID,19.1606,VALID,53,VALID,0,
1999-10-23, 02:52:01,VALID,0,VALID,99.5755,VALID,-0.0509425,VALID,19.1668,VALID,19,VALID,0,
1999-10-23, 02:53:00,VALID,0,VALID,99.6188,VALID,-0.0339617,VALID,19.2001,VALID,358,VALID,0,
1999-10-23, 02:54:00,VALID,0,VALID,99.6315,VALID,-0.0849042,VALID,19.2123,VALID,358,VALID,0,
1999-10-23, 02:55:00,VALID,0,VALID,99.7014,VALID,-0.0169808,VALID,19.238,VALID,358,VALID,0,
1999-10-23, 02:56:00,VALID,0,VALID,99.6989,VALID,-0.0339617,VALID,19.2678,VALID,358,VALID,0,
1999-10-23, 02:57:00,VALID,0,VALID,99.6468,VALID,-0.0509425,VALID,19.2551,VALID,246,VALID,0.164258,
1999-10-23, 02:58:00,VALID,0.2,VALID,99.6646,VALID,-0.0169808,VALID,19.2415,VALID,112,VALID,0.10074,
1999-10-23, 02:59:00,VALID,0,VALID,99.7675,VALID,-0.0169808,VALID,19.2638,VALID,47,VALID,0,
1999-10-23, 03:00:00,VALID,0,VALID,99.7243,VALID,-0.0169808,VALID,19.2676,VALID,300,VALID,0.397204,
1999-10-23, 03:01:00,VALID,0,VALID,99.7218,VALID,-0.0339617,VALID,19.2375,VALID,17,VALID,0.516602,
1999-10-23, 03:02:00,VALID,0,VALID,99.7459,VALID,-0.0339617,VALID,19.2447,VALID,136,VALID,1.32956,
1999-10-23, 03:03:01,VALID,0,VALID,99.5501,VALID,0.0169808,VALID,19.183,VALID,281,VALID,1.23379,
1999-10-23, 03:04:00,VALID,0,VALID,99.5158,VALID,-0.0339617,VALID,19.128,VALID,63,VALID,0.201275,
1999-10-23, 03:05:00,VALID,0,VALID,99.4992,VALID,-0.0169808,VALID,19.1188,VALID,190,VALID,0,
1999-10-23, 03:06:00,VALID,0.2,VALID,99.5018,VALID,-0.0339617,VALID,19.0989,VALID,301,VALID,0,
1999-10-23, 03:07:00,VALID,0,VALID,99.5259,VALID,0,VALID,19.0895,VALID,299,VALID,0,
1999-10-23, 03:08:00,VALID,0,VALID,99.5666,VALID,-0.0169808,VALID,19.0959,VALID,312,VALID,0,
1999-10-23, 03:09:00,VALID,0,VALID,99.4916,VALID,0,VALID,19.0671,VALID,169,VALID,0.435547,
1999-10-23, 03:10:00,VALID,0,VALID,99.3962,VALID,0,VALID,19.0084,VALID,334,VALID,0.498561,
1999-10-23, 03:11:00,VALID,0,VALID,99.3759,VALID,-0.0339617,VALID,18.9761,VALID,9,VALID,0.328711,
1999-10-23, 03:12:00,VALID,0,VALID,99.4293,VALID,0,VALID,18.9763,VALID,272,VALID,0.144326,
1999-10-23, 03:13:01,VALID,0,VALID,99.4585,VALID,-0.0169808,VALID,18.9858,VALID,219,VALID,0,
1999-10-23, 03:14:00,VALID,0,VALID,99.4827,VALID,-0.0169808,VALID,18.9885,VALID,231,VALID,0,
1999-10-23, 03:15:00,VALID,0,VALID,99.5132,VALID,-0.0679233,VALID,19.0121,VALID,269,VALID,0,
1999-10-23, 03:16:00,VALID,0,VALID,99.4611,VALID,-0.0339617,VALID,18.9885,VALID,301,VALID,0,
1999-10-23, 03:17:00,VALID,0,VALID,99.4484,VALID,-0.0339617,VALID,18.9823,VALID,265,VALID,0,
1999-10-23, 03:18:00,VALID,0,VALID,99.4535,VALID,-0.0339617,VALID,18.986,VALID,255,VALID,0,
1999-10-23, 03:19:00,VALID,0,VALID,99.409,VALID,-0.0169808,VALID,18.9832,VALID,269,VALID,0,
1999-10-23, 03:20:00,VALID,0,VALID,99.395,VALID,-0.0169808,VALID,18.9537,VALID,187,VALID,0.240543,
1999-10-23, 03:21:00,VALID,0,VALID,99.4369,VALID,0,VALID,18.9795,VALID,129,VALID,0.230859,
1999-10-23, 03:22:00,VALID,0,VALID,99.3784,VALID,-0.0169808,VALID,18.9664,VALID,73,VALID,0.419408,
1999-10-23, 03:23:00,VALID,0,VALID,99.1902,VALID,-0.0679233,VALID,18.9151,VALID,321,VALID,0.542383,
1999-10-23, 03:24:01,VALID,0,VALID,99.1852,VALID,-0.101885,VALID,18.9119,VALID,157,VALID,0.506579,
1999-10-23, 03:25:01,VALID,0,VALID,99.2157,VALID,-0.0339617,VALID,18.9338,VALID,92,VALID,0.736523,
1999-10-23, 03:26:00,VALID,0,VALID,99.1928,VALID,-0.0169808,VALID,18.9407,VALID,89,VALID,0.431538,
1999-10-23, 03:27:00,VALID,0,VALID,99.1674,VALID,-0.0169808,VALID,18.9345,VALID,112,VALID,0.0527344,
1999-10-23, 03:28:00,VALID,0,VALID,99.1127,VALID,-0.0509425,VALID,18.9114,VALID,112,VALID,0.016653,
1999-10-23, 03:29:00,VALID,0,VALID,99.0911,VALID,-0.0509425,VALID,18.9216,VALID,114,VALID,0.346484,
1999-10-23, 03:30:00,VALID,0,VALID,99.1788,VALID,-0.0849042,VALID,18.9636,VALID,112,VALID,0.615132,
1999-10-23, 03:31:00,VALID,0,VALID,99.1318,VALID,-0.0849042,VALID,18.9604,VALID,64,VALID,0.459375,
1999-10-23, 03:32:00,VALID,0,VALID,98.9906,VALID,-0.0169808,VALID,18.9345,VALID,47,VALID,0.171669,
1999-10-23, 03:33:00,VALID,0,VALID,98.9766,VALID,-0.0169808,VALID,18.9474,VALID,76,VALID,0.269336,
1999-10-23, 03:34:00,VALID,0,VALID,98.9092,VALID,-0.0169808,VALID,18.9444,VALID,46,VALID,0.260691,
1999-10-23, 03:35:01,VALID,0,VALID,98.9029,VALID,-0.0169808,VALID,18.9472,VALID,126,VALID,0,
1999-10-23, 03:36:01,VALID,0,VALID,98.9296,VALID,0,VALID,18.9537,VALID,121,VALID,0,
1999-10-23, 03:37:00,VALID,0,VALID,99.0071,VALID,-0.0509425,VALID,18.9763,VALID,103,VALID,0,
1999-10-23, 03:38:00,VALID,0,VALID,99.0313,VALID,-0.0679233,VALID,18.9929,VALID,91,VALID,0.284539,
1999-10-23, 03:39:00,VALID,0,VALID,98.9868,VALID,-0.0339617,VALID,18.9862,VALID,92,VALID,0.29375,
1999-10-23, 03:40:00,VALID,0,VALID,98.969,VALID,-0.0509425,VALID,18.9962,VALID,108,VALID,0.2169,
1999-10-23, 03:41:00,VALID,0,VALID,98.9118,VALID,-0.0339617,VALID,18.983,VALID,109,VALID,0.0171875,
1999-10-23, 03:42:00,VALID,0,VALID,98.81,VALID,-0.0679233,VALID,18.9701,VALID,109,VALID,0,
1999-10-23, 03:43:00,VALID,0,VALID,98.7719,VALID,-0.0509425,VALID,18.9802,VALID,109,VALID,0,
1999-10-23, 03:44:00,VALID,0,VALID,98.7375,VALID,-0.0339617,VALID,18.9802,VALID,109,VALID,0,
1999-10-23, 03:45:00,VALID,0,VALID,98.7808,VALID,0,VALID,18.9897,VALID,111,VALID,0,
1999-10-23, 03:46:00,VALID,0,VALID,98.8024,VALID,-0.0339617,VALID,18.9987,VALID,131,VALID,0.615132,
1999-10-23, 03:47:01,VALID,0,VALID,98.8406,VALID,-0.0339617,VALID,19.025,VALID,131,VALID,0.559766,
1999-10-23, 03:48:00,VALID,0,VALID,98.8533,VALID,-0.0849042,VALID,19.0151,VALID,130,VALID,0.651933,
1999-10-23, 03:49:00,VALID,0,VALID,98.8202,VALID,-0.0339617,VALID,19.0253,VALID,124,VALID,1.00469,
1999-10-23, 03:50:00,VALID,0,VALID,98.8215,VALID,-0.0339617,VALID,19.0019,VALID,129,VALID,0.851768,
1999-10-23, 03:51:00,VALID,0,VALID,98.796,VALID,-0.0339617,VALID,19.0089,VALID,145,VALID,0.691602,
1999-10-23, 03:52:00,VALID,0,VALID,98.7426,VALID,-0.0679233,VALID,18.9763,VALID,158,VALID,0.571752,
1999-10-23, 03:53:00,VALID,0,VALID,98.763,VALID,-0.0339617,VALID,18.9504,VALID,167,VALID,0.438672,
1999-10-23, 03:54:00,VALID,0,VALID,98.8037,VALID,-0.0169808,VALID,18.9375,VALID,177,VALID,0.419408,
1999-10-23, 03:55:00,VALID,0,VALID,98.9079,VALID,-0.0169808,VALID,18.9373,VALID,176,VALID,0.377148,
1999-10-23, 03:56:00,VALID,0,VALID,98.9626,VALID,-0.0339617,VALID,18.9477,VALID,154,VALID,0.379934,
1999-10-23, 03:57:01,VALID,0,VALID,98.9753,VALID,0,VALID,18.9278,VALID,146,VALID,0.486133,
1999-10-23, 03:58:01,VALID,0,VALID,99.0631,VALID,-0.0339617,VALID,18.9474,VALID,141,VALID,0.44449,
1999-10-23, 03:59:00,VALID,0,VALID,99.03,VALID,-0.0169808,VALID,18.938,VALID,162,VALID,0.554492,
1999-10-23, 04:00:00,VALID,0,VALID,99.0084,VALID,-0.0679233,VALID,18.9084,VALID,152,VALID,0.625411,
1999-10-23, 04:01:00,VALID,0,VALID,99.0834,VALID,-0.0679233,VALID,18.9186,VALID,140,VALID,0.707617,
1999-10-23, 04:02:00,VALID,0,VALID,99.1152,VALID,-0.0339617,VALID,18.9116,VALID,130,VALID,0.694079,
1999-10-23, 04:03:00,VALID,0,VALID,99.147,VALID,-0.0849042,VALID,18.9019,VALID,136,VALID,0.677148,
1999-10-23, 04:04:00,VALID,0,VALID,99.1712,VALID,-0.0339617,VALID,18.9253,VALID,147,VALID,0.37685,
1999-10-23, 04:05:00,VALID,0,VALID,99.1457,VALID,-0.0679233,VALID,18.8987,VALID,166,VALID,0.845703,
1999-10-23, 04:06:00,VALID,0,VALID,99.1216,VALID,-0.0679233,VALID,18.8731,VALID,172,VALID,0.888775,
1999-10-23, 04:07:00,VALID,0,VALID,99.1496,VALID,-0.0169808,VALID,18.8569,VALID,167,VALID,0.604102,
1999-10-23, 04:08:01,VALID,0,VALID,99.2144,VALID,-0.0509425,VALID,18.8733,VALID,177,VALID,0.640214,
1999-10-23, 04:09:01,VALID,0,VALID,99.2513,VALID,-0.0339617,VALID,18.8698,VALID,200,VALID,0.538672,
1999-10-23, 04:10:00,VALID,0,VALID,99.2627,VALID,-0.0169808,VALID,18.8671,VALID,212,VALID,0.689967,
1999-10-23, 04:11:00,VALID,0,VALID,99.2869,VALID,-0.0169808,VALID,18.8435,VALID,212,VALID,0.786914,
1999-10-23, 04:12:00,VALID,0,VALID,99.3225,VALID,-0.0509425,VALID,18.8539,VALID,219,VALID,0.576891,
1999-10-23, 04:13:00,VALID,0,VALID,99.3466,VALID,-0.0679233,VALID,18.8604,VALID,213,VALID,0.422461,